• In Italy
  • List of Countries
  • For 7 days
  • Water Temperature
  • Satellite Maps
  • Weather Map
  • Weather Widgets
  • user-avatar
    Login

    Hourly Weather Korsor

    Today, 23 September, Sunday

    Time Temperature Precipitation Wind Pressure Humidity
    00:00 +9°C° 0.1 mm 10 mps 757 mmHg 74%
    01:00 +10°C° 0 mm 8 mps 757 mmHg 77%
    02:00 +10°C° 0.1 mm 8 mps 757 mmHg 77%
    03:00 +10°C° 0.1 mm 8 mps 757 mmHg 77%
    04:00 +10°C° 0.1 mm 8 mps 757 mmHg 77%
    05:00 +10°C° 0.1 mm 8 mps 757 mmHg 76%
    06:00 +10°C° 0.1 mm 8 mps 757 mmHg 76%
    07:00 +10°C° 0 mm 6 mps 757 mmHg 77%
    08:00 +10°C° 0.1 mm 6 mps 757 mmHg 71%
    09:00 +11°C° 0.1 mm 7 mps 757 mmHg 65%
    10:00 +12°C° 0.1 mm 7 mps 757 mmHg 59%
    11:00 +14°C° 0.1 mm 6 mps 757 mmHg 57%
    12:00 +14°C° 0.1 mm 6 mps 757 mmHg 55%
    13:00 +14°C° 0.1 mm 6 mps 757 mmHg 53%
    14:00 +14°C° 0 mm 6 mps 756 mmHg 54%
    15:00 +14°C° 0 mm 6 mps 756 mmHg 55%
    16:00 +12°C° 0 mm 7 mps 756 mmHg 56%
    17:00 +12°C° 0 mm 7 mps 756 mmHg 59%
    18:00 +11°C° 0 mm 8 mps 756 mmHg 63%
    19:00 +10°C° 0 mm 8 mps 756 mmHg 67%
    20:00 +10°C° 0 mm 9 mps 756 mmHg 67%
    21:00 +10°C° 0 mm 9 mps 756 mmHg 67%
    22:00 +8°C° 0 mm 10 mps 757 mmHg 67%
    23:00 +8°C° 0 mm 10 mps 757 mmHg 66%

    Tomorrow, 24 September, Monday

    Time Temperature Precipitation Wind Pressure Humidity
    00:00 +8°C° 0 mm 11 mps 758 mmHg 64%
    01:00 +8°C° 0 mm 11 mps 758 mmHg 63%
    02:00 +8°C° 0 mm 12 mps 759 mmHg 62%
    03:00 +8°C° 0 mm 12 mps 760 mmHg 60%
    04:00 +7°C° 0 mm 13 mps 760 mmHg 59%
    05:00 +7°C° 0 mm 13 mps 761 mmHg 59%
    06:00 +7°C° 0 mm 13 mps 762 mmHg 58%
    07:00 +6°C° 0 mm 14 mps 762 mmHg 58%
    08:00 +8°C° 0.1 mm 13 mps 763 mmHg 58%
    09:00 +8°C° 0.1 mm 13 mps 764 mmHg 58%
    10:00 +9°C° 0.1 mm 13 mps 765 mmHg 58%
    11:00 +9°C° 0.2 mm 12 mps 766 mmHg 57%
    12:00 +9°C° 0.2 mm 11 mps 766 mmHg 56%
    13:00 +11°C° 0.2 mm 11 mps 767 mmHg 55%
    14:00 +11°C° 0.1 mm 10 mps 768 mmHg 55%
    15:00 +9°C° 0.1 mm 10 mps 768 mmHg 54%
    16:00 +9°C° 0.1 mm 10 mps 769 mmHg 54%
    17:00 +9°C° 0.1 mm 10 mps 769 mmHg 56%
    18:00 +8°C° 0.1 mm 9 mps 770 mmHg 59%
    19:00 +7°C° 0.1 mm 9 mps 770 mmHg 61%
    20:00 +7°C° 0 mm 9 mps 771 mmHg 62%
    21:00 +7°C° 0 mm 9 mps 771 mmHg 62%
    22:00 +7°C° 0 mm 9 mps 772 mmHg 63%
    23:00 +7°C° 0 mm 8 mps 772 mmHg 64%

    Day after tomorrow, 25 September, Tuesday

    Time Temperature Precipitation Wind Pressure Humidity
    00:00 +7°C° 0 mm 8 mps 772 mmHg 64%
    01:00 +6°C° 0 mm 7 mps 773 mmHg 65%
    02:00 +6°C° 0 mm 7 mps 773 mmHg 67%
    03:00 +6°C° 0 mm 7 mps 773 mmHg 68%
    04:00 +6°C° 0 mm 7 mps 773 mmHg 70%
    05:00 +7°C° 0 mm 6 mps 774 mmHg 70%
    06:00 +5°C° 0 mm 6 mps 774 mmHg 71%
    07:00 +6°C° 0 mm 5 mps 774 mmHg 71%
    08:00 +8°C° 0 mm 5 mps 775 mmHg 67%
    09:00 +9°C° 0 mm 5 mps 775 mmHg 63%
    10:00 +12°C° 0 mm 5 mps 775 mmHg 59%
    11:00 +12°C° 0 mm 5 mps 775 mmHg 58%
    12:00 +13°C° 0 mm 5 mps 775 mmHg 57%
    13:00 +13°C° 0 mm 5 mps 775 mmHg 56%
    14:00 +13°C° 0 mm 5 mps 775 mmHg 57%
    15:00 +13°C° 0 mm 6 mps 775 mmHg 58%
    16:00 +14°C° 0 mm 6 mps 774 mmHg 59%
    17:00 +13°C° 0 mm 6 mps 774 mmHg 63%
    18:00 +11°C° 0 mm 7 mps 774 mmHg 68%
    19:00 +10°C° 0 mm 7 mps 774 mmHg 73%
    20:00 +10°C° 0 mm 7 mps 774 mmHg 74%
    21:00 +10°C° 0 mm 7 mps 774 mmHg 74%
    22:00 +10°C° 0 mm 8 mps 773 mmHg 75%
    23:00 +10°C° 0 mm 8 mps 773 mmHg 75%

    26 September, Wednesday

    Time Temperature Precipitation Wind Pressure Humidity
    00:00 +10°C° 0 mm 9 mps 772 mmHg 76%
    01:00 +11°C° 0 mm 9 mps 772 mmHg 77%
    02:00 +11°C° 0 mm 10 mps 771 mmHg 76%
    03:00 +11°C° 0 mm 10 mps 771 mmHg 76%
    04:00 +11°C° 0 mm 11 mps 770 mmHg 75%
    05:00 +11°C° 0 mm 11 mps 770 mmHg 74%
    06:00 +12°C° 0 mm 12 mps 769 mmHg 73%
    07:00 +12°C° 0 mm 12 mps 769 mmHg 72%
    08:00 +12°C° 0 mm 12 mps 768 mmHg 73%
    09:00 +13°C° 0 mm 13 mps 768 mmHg 73%
    10:00 +13°C° 0 mm 13 mps 767 mmHg 73%
    11:00 +13°C° 0.2 mm 13 mps 767 mmHg 74%
    12:00 +13°C° 0.2 mm 13 mps 766 mmHg 76%
    13:00 +13°C° 0.2 mm 13 mps 766 mmHg 77%
    14:00 +13°C° 0.1 mm 13 mps 765 mmHg 77%
    15:00 +14°C° 0.1 mm 13 mps 765 mmHg 78%
    16:00 +14°C° 0.1 mm 12 mps 764 mmHg 78%
    17:00 +14°C° 0.2 mm 12 mps 764 mmHg 80%
    18:00 +14°C° 0.2 mm 12 mps 764 mmHg 83%
    19:00 +14°C° 0.2 mm 12 mps 764 mmHg 85%
    20:00 +14°C° 0.1 mm 12 mps 764 mmHg 85%
    21:00 +16°C° 0.1 mm 11 mps 764 mmHg 86%
    22:00 +16°C° 0.1 mm 11 mps 764 mmHg 86%
    23:00 +16°C° 0 mm 11 mps 764 mmHg 86%

    27 September, Thursday

    Time Temperature Precipitation Wind Pressure Humidity
    00:00 +16°C° 0 mm 10 mps 764 mmHg 87%
    01:00 +16°C° 0 mm 10 mps 764 mmHg 87%
    02:00 +16°C° 0 mm 9 mps 764 mmHg 87%
    03:00 +16°C° 0 mm 9 mps 764 mmHg 87%
    04:00 +16°C° 0 mm 8 mps 764 mmHg 88%
    05:00 +16°C° 0 mm 8 mps 764 mmHg 88%
    06:00 +16°C° 0 mm 8 mps 764 mmHg 88%
    07:00 +15°C° 0 mm 8 mps 764 mmHg 88%
    08:00 +16°C° 0 mm 8 mps 764 mmHg 87%
    09:00 +16°C° 0 mm 8 mps 765 mmHg 85%
    10:00 +16°C° 0 mm 8 mps 765 mmHg 84%
    11:00 +17°C° 0 mm 8 mps 764 mmHg 82%
    12:00 +17°C° 0 mm 8 mps 764 mmHg 81%
    13:00 +17°C° 0 mm 8 mps 764 mmHg 79%
    14:00 +18°C° 0 mm 9 mps 763 mmHg 78%
    15:00 +18°C° 0 mm 9 mps 763 mmHg 76%
    16:00 +18°C° 0 mm 9 mps 762 mmHg 75%
    17:00 +17°C° 0 mm 9 mps 762 mmHg 78%
    18:00 +16°C° 0 mm 9 mps 762 mmHg 81%
    19:00 +16°C° 0 mm 9 mps 762 mmHg 85%
    20:00 +14°C° 0 mm 10 mps 762 mmHg 83%
    21:00 +14°C° 0 mm 10 mps 761 mmHg 81%
    22:00 +14°C° 0 mm 10 mps 761 mmHg 79%
    23:00 +14°C° 0.1 mm 10 mps 762 mmHg 78%

    28 September, Friday

    Time Temperature Precipitation Wind Pressure Humidity
    00:00 +13°C° 0.1 mm 10 mps 762 mmHg 77%
    01:00 +13°C° 0.1 mm 9 mps 762 mmHg 76%
    02:00 +12°C° 0 mm 9 mps 762 mmHg 74%
    03:00 +11°C° 0 mm 9 mps 763 mmHg 72%
    04:00 +9°C° 0 mm 8 mps 763 mmHg 70%
    05:00 +9°C° 0 mm 8 mps 763 mmHg 70%
    06:00 +9°C° 0 mm 8 mps 764 mmHg 70%
    07:00 +9°C° 0 mm 7 mps 764 mmHg 70%
    08:00 +10°C° 0 mm 7 mps 764 mmHg 66%
    09:00 +10°C° 0 mm 7 mps 765 mmHg 62%
    10:00 +11°C° 0 mm 7 mps 766 mmHg 58%
    11:00 +13°C° 0 mm 6 mps 766 mmHg 56%
    12:00 +13°C° 0 mm 6 mps 766 mmHg 54%
    13:00 +13°C° 0 mm 5 mps 766 mmHg 52%
    14:00 +13°C° 0 mm 5 mps 766 mmHg 52%
    15:00 +13°C° 0 mm 5 mps 766 mmHg 52%
    16:00 +13°C° 0 mm 5 mps 766 mmHg 52%
    17:00 +12°C° 0 mm 5 mps 767 mmHg 55%
    18:00 +10°C° 0 mm 5 mps 767 mmHg 59%
    19:00 +10°C° 0 mm 4 mps 767 mmHg 62%
    20:00 +9°C° 0 mm 5 mps 768 mmHg 64%
    21:00 +8°C° 0 mm 5 mps 768 mmHg 67%
    22:00 +8°C° 0 mm 5 mps 768 mmHg 69%
    23:00 +8°C° 0 mm 4 mps 768 mmHg 71%
    Show more